OE5RLP-14 Weather Reports


time (UTC)temp
F
wind
direction
speed
knots
gust
knots
rain 1hr
in
rain 24hr
in
rain mn
in
humidity
%
barometer
mb
20260502195427 58 142 1.7 2.6 0.00 0.00 0.00 51 1019.8
20260502194425 59 135 1.7 2.6 0.00 0.00 0.00 49 1020.0
20260502193425 59 143 1.7 2.6 0.00 0.00 0.00 48 1020.1
20260502192445 61 129 1.7 2.6 0.00 0.00 0.00 46 1019.9
20260502191444 62 133 2.6 3.5 0.00 0.00 0.00 45 1020.0
20260502190443 64 129 2.6 2.6 0.00 0.00 0.00 43 1020.0
20260502185440 64 104 4.3 6.1 0.00 0.00 0.00 42 1020.1
20260502184437 64 81 2.6 3.5 0.00 0.00 0.00 42 1020.1
20260502183434 65 103 4.3 6.1 0.00 0.00 0.00 42 1019.9
20260502182431 65 85 7.0 7.8 0.00 0.00 0.00 41 1019.8
20260502181430 66 78 7.0 8.7 0.00 0.00 0.00 39 1019.8
20260502180427 66 82 5.2 7.0 0.00 0.00 0.00 39 1019.9
20260502170438 69 88 6.1 8.7 0.00 0.00 0.00 35 1020.2
20260502163430 70 93 4.3 7.0 0.00 0.00 0.00 29 1020.5
20260502162427 70 86 12.2 15.6 0.00 0.00 0.00 31 1020.6
20260502161424 70 79 8.7 11.3 0.00 0.00 0.00 28 1020.7
20260502160424 71 91 11.3 16.5 0.00 0.00 0.00 30 1020.6
20260502151437 72 94 11.3 16.5 0.00 0.00 0.00 30 1021.2
20260502150434 72 87 6.1 7.8 0.00 0.00 0.00 28 1021.5
20260502130451 74 74 5.2 7.8 0.00 0.00 0.00 32 1022.6
20260502123424 73 64 10.4 18.2 0.00 0.00 0.00 35 1022.7
20260502122425 73 89 6.1 7.8 0.00 0.00 0.00 39 1022.9
20260502121505 73 86 8.7 11.3 0.00 0.00 0.00 37 1023.0
20260502120443 72 83 3.5 7.0 0.00 0.00 0.00 42 1023.1
20260502115442 72 70 6.1 11.3 0.00 0.00 0.00 40 1023.3
20260502114437 72 82 7.8 9.6 0.00 0.00 0.00 43 1023.3
20260502113436 71 83 7.0 9.6 0.00 0.00 0.00 42 1023.5
20260502112431 70 93 9.6 11.3 0.00 0.00 0.00 41 1023.5
20260502111428 70 92 7.0 7.8 0.00 0.00 0.00 43 1023.7
20260502110426 70 81 6.1 11.3 0.00 0.00 0.00 46 1023.7
20260502105450 69 103 4.3 8.7 0.00 0.00 0.00 42 1024.0
20260502104424 69 62 6.1 8.7 0.00 0.00 0.00 43 1023.9
20260502103424 69 81 3.5 5.2 0.00 0.00 0.00 46 1024.2
20260502102444 68 81 3.5 6.1 0.00 0.00 0.00 46 1024.2
20260502101441 68 346 3.5 6.1 0.00 0.00 0.00 47 1024.2
20260502100439 67 42 5.2 7.8 0.00 0.00 0.00 47 1024.5
20260502091446 64 32 2.6 3.5 0.00 0.00 0.00 53 1025.0
20260502090424 64 118 2.6 7.0 0.00 0.00 0.00 56 1025.0
20260502071426 57 148 2.6 3.5 0.00 0.00 0.00 62 1025.7
20260502070424 56 121 2.6 3.5 0.00 0.00 0.00 62 1025.8
20260502065444 56 158 0.9 1.7 0.00 0.00 0.00 64 1025.9
20260502064440 56 141 0.9 1.7 0.00 0.00 0.00 63 1026.0
20260502063438 56 121 1.7 2.6 0.00 0.00 0.00 64 1026.0
20260502062436 56 101 0.0 0.9 0.00 0.00 0.00 64 1026.1
20260502061434 59 104 0.9 0.9 0.00 0.00 0.00 59 1026.1
20260502060449 58 141 0.9 1.7 0.00 0.00 0.00 60 1025.7
20260502055428 57 0.0 0.0 0.00 0.00 0.00 64 1025.9
20260502054426 54 163 0.9 0.9 0.00 0.00 0.00 64 1025.9
20260502053424 55 173 1.7 2.6 0.00 0.00 0.00 63 1025.8
20260502052424 54 140 2.6 5.2 0.00 0.00 0.00 66 1026.2
20260502051445 53 124 1.7 1.7 0.00 0.00 0.00 66 1026.1
20260502050442 51 138 1.7 2.6 0.00 0.00 0.00 69 1026.1
20260502045441 49 133 1.7 2.6 0.00 0.00 0.00 72 1025.9
20260502044456 48 161 0.9 1.7 0.00 0.00 0.00 73 1026.0
20260502043435 47 141 1.7 2.6 0.00 0.00 0.00 77 1026.0
20260502042430 45 159 3.5 3.5 0.00 0.00 0.00 80 1025.7
20260502041427 44 169 2.6 2.6 0.00 0.00 0.00 83 1025.9
20260502040425 42 166 2.6 3.5 0.00 0.00 0.00 85 1025.9
20260502035424 40 141 3.5 5.2 0.00 0.00 0.00 85 1025.8
20260502034425 40 183 4.3 6.1 0.00 0.00 0.00 85 1026.0
20260502033424 40 160 3.5 5.2 0.00 0.00 0.00 84 1025.8
20260502032443 40 154 3.5 5.2 0.00 0.00 0.00 84 1025.8
20260502031442 40 155 4.3 6.1 0.00 0.00 0.00 83 1025.9
20260502030438 40 171 3.5 5.2 0.00 0.00 0.00 84 1025.9
20260502025435 40 185 2.6 3.5 0.00 0.00 0.00 82 1026.0
20260502024432 40 173 3.5 6.1 0.00 0.00 0.00 82 1026.1
20260502023429 41 177 2.6 3.5 0.00 0.00 0.00 81 1026.3
20260502022427 41 156 4.3 5.2 0.00 0.00 0.00 81 1026.5
20260502021424 41 172 2.6 5.2 0.00 0.00 0.00 80 1026.2
20260502020423 42 151 4.3 5.2 0.00 0.00 0.00 79 1026.2
20260502015424 42 177 3.5 6.1 0.00 0.00 0.00 79 1026.2
20260502014447 42 141 3.5 5.2 0.00 0.00 0.00 78 1026.2
20260502013444 42 159 2.6 2.6 0.00 0.00 0.00 78 1026.5
20260502012440 42 160 3.5 5.2 0.00 0.00 0.00 78 1026.3
20260502011437 42 154 3.5 5.2 0.00 0.00 0.00 77 1026.5
20260502010456 43 170 3.5 5.2 0.00 0.00 0.00 77 1026.7
20260502005431 44 165 2.6 3.5 0.00 0.00 0.00 75 1026.7
20260502004450 44 169 2.6 3.5 0.00 0.00 0.00 74 1026.6
20260502003427 44 153 3.5 5.2 0.00 0.00 0.00 74 1027.0
20260502002445 45 158 3.5 3.5 0.00 0.00 0.00 74 1026.8
20260502001424 44 165 2.6 3.5 0.00 0.00 0.00 73 1026.7
20260502000424 44 162 3.5 5.2 0.00 0.00 0.00 73 1026.9
20260501235444 45 166 1.7 5.2 0.00 0.00 0.00 74 1027.0
20260501234503 45 143 2.6 3.5 0.00 0.00 0.00 73 1027.2
20260501233439 45 169 3.5 3.5 0.00 0.00 0.00 73 1027.4
20260501232436 45 189 2.6 3.5 0.00 0.00 0.00 72 1027.4
20260501231513 45 162 2.6 3.5 0.00 0.00 0.00 72 1027.4
20260501230430 45 158 2.6 2.6 0.00 0.00 0.00 71 1027.4
20260501225429 45 166 3.5 3.5 0.00 0.00 0.00 70 1027.5
20260501224426 46 173 2.6 3.5 0.00 0.00 0.00 70 1027.4
20260501223425 46 174 2.6 3.5 0.00 0.00 0.00 68 1027.5
20260501222425 47 191 1.7 3.5 0.00 0.00 0.00 69 1027.3
20260501221424 47 182 2.6 3.5 0.00 0.00 0.00 68 1027.5
20260501220445 47 155 2.6 3.5 0.00 0.00 0.00 67 1027.5
20260501215442 47 159 1.7 2.6 0.00 0.00 0.00 68 1027.4
20260501214438 47 152 2.6 2.6 0.00 0.00 0.00 66 1027.5
20260501213437 48 172 2.6 3.5 0.00 0.00 0.00 65 1027.4
20260501212432 48 157 3.5 3.5 0.00 0.00 0.00 65 1027.5
20260501211429 49 160 2.6 2.6 0.00 0.00 0.00 64 1027.4
20260501210427 49 172 2.6 3.5 0.00 0.00 0.00 64 1027.6
20260501205445 49 176 2.6 2.6 0.00 0.00 0.00 65 1027.6
20260501204424 49 159 1.7 2.6 0.00 0.00 0.00 63 1027.5
20260501203425 50 151 2.6 3.5 0.00 0.00 0.00 61 1027.4
20260501202447 50 163 2.6 2.6 0.00 0.00 0.00 60 1027.6
20260501201502 51 160 1.7 2.6 0.00 0.00 0.00 58 1027.6
20260501200439 52 151 1.7 2.6 0.00 0.00 0.00 58 1027.7